Location: Alma
(38.7220°N, 88.9090°W)
Time: 13:19:58
(UTC-06:00)

deb Explorer IX - Visible Passes

Search period start: 11 November 2019 00:00
Search period end: 21 November 2019 00:00
Orbit: 546 x 1105 km, 38.8° (Epoch: 09 November)

Date Brightness Start Highest point End Pass type
(mag) Time Alt. Az. Time Alt. Az. Time Alt. Az.
11 Nov ? 04:14:58 51° SSE 04:14:58 51° SSE 04:19:05 10° E visible
11 Nov ? 05:56:53 10° W 06:01:33 89° N 06:05:45 10° E visible
12 Nov ? 03:54:25 37° ESE 03:54:25 37° ESE 03:57:20 10° E visible
12 Nov ? 05:35:48 15° W 05:39:42 89° NNW 05:43:59 10° E visible
13 Nov ? 03:33:47 23° E 03:33:47 23° E 03:35:35 10° E visible
13 Nov ? 05:15:10 26° W 05:17:52 89° N 05:22:12 10° E visible
14 Nov ? 03:13:07 14° E 03:13:07 14° E 03:13:48 10° E visible
14 Nov ? 04:54:30 45° W 04:56:00 89° N 05:00:26 10° E visible
15 Nov ? 04:33:48 79° W 04:34:07 88° N 04:38:40 10° E visible
16 Nov ? 04:13:05 62° E 04:13:05 62° E 04:16:54 10° E visible
16 Nov ? 05:54:27 11° W 05:59:09 66° SSW 06:03:24 10° ESE visible
17 Nov ? 03:52:21 37° E 03:52:21 37° E 03:55:07 10° E visible
17 Nov ? 05:33:43 19° W 05:37:16 65° SSW 05:41:37 10° ESE visible
18 Nov ? 03:31:37 23° E 03:31:37 23° E 03:33:20 10° E visible
18 Nov ? 05:12:59 30° W 05:15:23 65° SSW 05:19:51 10° ESE visible
19 Nov ? 03:10:54 14° E 03:10:54 14° E 03:11:32 10° E visible
19 Nov ? 04:52:17 48° WSW 04:53:28 65° SSW 04:58:03 10° ESE visible
20 Nov ? 04:31:35 65° SSW 04:31:35 65° SSW 04:36:15 10° ESE visible
